Regional Weather Roundup
Issued by NWS Grand Forks, ND

Home | Current Version | Previous Version | Graphics & Text | Print | Product List | Glossary On
Versions: 1 2 3 4 5 6 7 8 9 10 11 12 13 14 15 16 17 18 19 20 21 22 23 24 25 26 27 28 29 30 31 32 33 34 35 36 37 38 39 40 41 42 43 44 45 46 47 48 49 50
000
ASUS43 KFGF 292310
RWRFGF
PRAIRIE TO PINES  WEATHER ROUNDUP
NATIONAL WEATHER SERVICE EASTERN NORTH DAKOTA/GRAND FORKS ND
600 PM CDT SUN MAR 29 2015

 **SATELLITE DATA USED TO AUGMENT SKY COVER AT AUTOMATED STATIONS**
 *****  WEATHER ACROSS EASTERN NORTH DAKOTA  *****

CITY           SKY/WX    TMP DP  RH WIND       PRES   REMARKS
GRAND FORKS    PTSUNNY   53  28  38 NW14      29.88S
GRAND FRKS AFB NOT AVBL
GRAND FRKS NWS   N/A     50 N/A N/A NW16        N/A
DEVILS LAKE    PTSUNNY   54  30  40 NW21G31   29.89S
FARGO          MOSUNNY   56  24  29 NW23G35   29.91R
WAHPETON ARPT  MOCLDY    54  23  30 NW22      29.93R
$$

 ***** WEATHER ACROSS CENTRAL AND WESTERN NORTH DAKOTA  *****

CITY           SKY/WX    TMP DP  RH WIND       PRES   REMARKS
BISMARCK       SUNNY     60  30  32 NW14G23   29.97F
MINOT          SUNNY     56  28  34 W17       29.92F
JAMESTOWN      MOSUNNY   55  24  30 NW20G29   29.93F
MINOT AFB      SUNNY     56  33  40 NW15G26   29.91S
GARRISON         N/A     58  32  37 NW22G29   29.95F
WILLISTON      PTSUNNY   60  31  33 W15       29.94F
DICKINSON      MOSUNNY   59  25  27 W21       29.97F
HETTINGER      MOSUNNY   61  27  27 W18G25    30.02F
$$

 *****  OTHER AIRPORT OBSERVATIONS IN OUR AREA  *****

CITY           SKY/WX    TMP DP  RH WIND       PRES   REMARKS
WALHALLA         N/A     50  30  46 NW18G24   29.86S
GRAFTON AIRPOR NOT AVBL
VALLEY CITY AR MOCLDY    54  25  32 NW16G25   29.93S
CANDO          NOT AVBL
CAVALIER APRT  FAIR      52  32  46 NW14G24   29.86S
GWINNER        PTCLDY    54  28  37 NW15        N/A
SHEYENNE NWR     N/A     56  23  28 NW14      29.95S
ROLLA          CLOUDY    48  32  53 NW20      29.90S
 ***** THE ABOVE OBSERVATIONS ARE NON NWS ARE NOT QUALITY
       CONTROLLED AND MAY MIS-REPORT RAIN FOR SNOW...
$$

  *****  WEATHER ACROSS NORTHERN MINNESOTA  *****

CITY           SKY/WX    TMP DP  RH WIND       PRES   REMARKS
FLAG ISLAND    SUNNY     43  27  52 NW21      29.77R
WARROAD        PTSUNNY   48  30  49 NW13G18   29.80S
ROSEAU         MOSUNNY   48  32  53 NW15G22   29.82R
HALLOCK        SUNNY     52  32  46 NW14      29.85S
THF RVR FALLS  SUNNY     48  30  49 NW20G25   29.87S
BAUDETTE       MOSUNNY   46  27  47 NW21      29.77R
WASKISH        PTSUNNY   46  30  53 W13G22    29.80R
CROOKSTON      MOSUNNY   54  28  37 NW20G28   29.88S
STEPHEN NDAWN    N/A     52  36  54 N12         N/A
GREENBUSH NDAW   N/A     46  34  61 NW16        N/A
$$
  *****  WEATHER ACROSS CENTRAL AND WEST MINNESOTA  *****

CITY           SKY/WX    TMP DP  RH WIND       PRES   REMARKS
FOSSTON        SUNNY     48  27  43 NW22G28   29.88R
BEMIDJI        MOSUNNY   45  27  49 NW21      29.84R
PARK RAPIDS    MOSUNNY   50  26  39 NW26G36   29.84R
ELBOW LAKE     MOCLDY    49  27  42 NW17G28   29.91R
WADENA         SUNNY     48  27  43 NW22G35   29.87R
DETROIT LAKES  SUNNY     48  28  46 NW21G26   29.90R
MOORHEAD       MOSUNNY   55  19  24 NW23G29   29.91R
FERGUS FALLS   PTSUNNY   52  23  32 NW21G26   29.93R
MORRIS MN      PTSUNNY   55  27  33 NW25G37   29.92R
STAPLES        MOSUNNY   46  27  46 NW20G29   29.86R
$$
  *****  WEATHER ELSEWHERE ACROSS MINNESOTA  *****

CITY           SKY/WX    TMP DP  RH WIND       PRES   REMARKS
DULUTH         MOSUNNY   43  27  53 NW22G32   29.71R
INTRNTL FALLS  CLOUDY    43  26  51 NW17G26   29.74R
ELY            CLOUDY    39  28  65 NW13G25   29.68R
CLOQUET        MOSUNNY   46  25  42 NW24G35   29.73R
WHEATON        MOSUNNY   54  25  32 NW24G30   29.96R
BRAINERD       MOSUNNY   49  24  37 NW25G37   29.83R
HIBBING        MOSUNNY   44  28  53 NW22G29   29.72R
ALEXANDRIA     MOSUNNY   51  26  37 NW22G31   29.90R
SAINT CLOUD    MOSUNNY   50  27  40 NW26G36   29.84R
MINNEAPOLIS    MOSUNNY   52  28  39 NW25G33   29.82R
$$

  *****  WEATHER ACROSS SOUTH DAKOTA  *****

CITY           SKY/WX    TMP DP  RH WIND       PRES   REMARKS
SIOUX FALLS    SUNNY     59  19  21 NW25G32   30.01R
BROOKINGS      NOT AVBL
WATERTOWN      SUNNY     54  25  32 NW18      29.99R
HURON          SUNNY     59  14  17 NW20G30   30.02R
SISSETON         N/A     55  25  31 N24G32    29.95R
ABERDEEN       SUNNY     59  21  23 NW21G26   30.01S
MITCHELL       SUNNY     61  19  19 NW21G30   30.04S
PIERRE         SUNNY     62  26  25 W14       30.04F
MOBRIDGE       SUNNY     61  30  31 NW13      29.99F
RAPID CITY     PTSUNNY   63  26  24 N12       30.07F
$$

  *****  SOME WEATHER IN NEARBY STATES *****

CITY           SKY/WX    TMP DP  RH WIND       PRES   REMARKS
GLASGOW MT     PTSUNNY   61  29  29 W20G30    29.94F
GREAT FALLS MT MOSUNNY   58  25  28 W24G30    30.01F
CHEYENNE WY    SUNNY     61  18  18 SW9       30.16S
SCOTTSBLUFF NE PTSUNNY   65  23  20 CALM      30.11F
OMAHA NE       SUNNY     62  24  23 N21G29    30.03S
DES MOINES IA  MOSUNNY   62  23  22 NW23G32   29.95R
DAVENPORT IA   MOSUNNY   55  40  56 NW18G31   29.83R
CHICAGO IL     PTSUNNY   46  33  60 SW21G30   29.74F
EAU CLAIRE WI  SUNNY     49  30  48 NW16G29   29.74R
LA CROSSE WI   CLOUDY    53  36  52 W12       29.75R
$$

  *****  SOME NATIONAL WEATHER *****

CITY           SKY/WX    TMP DP  RH WIND       PRES   REMARKS
LA GUARDIA NY  PTCLDY    46   5  18 W8        30.16F
RALEIGH NC     PTCLDY    50  11  20 SW8       30.29F
ATLANTA GA     PTSUNNY   60  24  25 S7        30.24F
NEW ORLEANS LA MOSUNNY   73  60  63 S14       30.19S
OKLAHOMA CITY  MOSUNNY   74  38  27 NE17      30.05R
ALBUQUERQUE NM PTSUNNY   77  17  10 VRB5      30.13F
SALT LAKE CITY MOSUNNY   65  22  19 N12       30.20F
LOS ANGELES CA MOSUNNY   66  56  70 W10       29.99F
BOISE ID       SUNNY     66  25  21 W6        30.20F
SEATTLE WA     CLOUDY    59  43  55 SW12      30.22S
$$

*** WEATHER ACROSS MANITOBA...SASKATCHEWAN AND ONTARIO ***
                ***ONTARIO***

CITY           SKY/WX    TMP DP  RH WIND       PRES   REMARKS
GERALDTON      LGT SNOW  34  30  86 NW12G18   29.38R VSB 1
THUNDER BAY    LGT RAIN  41  32  70 NW16G29   29.53R
SIOUX LOOKOUT  PTSUNNY   39  23  52 NW23G36   29.64R
TORONTO        CLOUDY    39  18  41 S13G21    29.89F
BIG TROUT LK   FLURRIES  19  16  86 NW12G25   29.62R WCI   7
PICKLE LAKE    FLURRIES  30  25  80 NW12G25   29.56R WCI  21
DRYDEN         CLOUDY    41  25  52 NW9G23    29.67R
KENORA         PTSUNNY   45  27  49 NW17G28   29.74R
$$
                *** MANITOBA***

CITY           SKY/WX    TMP DP  RH WIND       PRES   REMARKS
BRANDON        MOSUNNY   48  34  57 NW21      29.89S
DAUPHIN        SUNNY     46  32  57 W18G28    29.83S
ISLAND LAKE    CLOUDY    25  19  80 N10G22    29.78R WCI  15
PILOT MOUND      N/A     48  32  53 NW18G24     N/A
THE PAS        MOSUNNY   48  25  40 NW15      29.77S
THOMPSON       PTSUNNY   25  16  68 NE6       29.83R WCI  18
WINNIPEG       MOSUNNY   50  28  43 NW17      29.84R
LYNN LAKE      SUNNY     34  25  69 SE9       29.76S
CHURCHILL      CLOUDY     7   1  78 N14       29.95R WCI -10
GILLAM         SUNNY     18   0  45 NE8       29.86R WCI   7
$$
                ***SASKATCHEWAN***

CITY           SKY/WX    TMP DP  RH WIND       PRES   REMARKS
ESTEVAN        MOSUNNY   57  32  38 W14G23    29.93S
KINDERSLEY     PTSUNNY   57  39  51 W3        29.80F
LLOYDMINSTER   CLOUDY    50  39  66 S8        29.76F
PRINCE ALBERT  CLOUDY    52  36  54 SW8       29.81F
REGINA         PTSUNNY   54  34  47 W3        29.90F
YORKTON        SUNNY     50  28  43 W12       29.88S
N. BATTLEFORD  MOSUNNY   54  36  50 SW13      29.81F
LA RONGE       MOSUNNY   50  21  32 W5        29.76F
SASKATOON      CLOUDY    55  32  41 SW12      29.84F
SWIFT CURRENT  MOSUNNY   59  30  33 W15G21    29.83F
$$
NOTE: THESE ARE AUTOMATED STATIONS WITH LIMITED QUALITY CONTROL
      "FAIR" INDICATES FEW OR NO CLOUDS BELOW 12,000 FEET WITH NO
      SIGNIFICANT WEATHER AND/OR OBSTRUCTIONS TO VISIBILITY.
      SKY/WX - SKY CONDITION AND SIGNIFICANT WEATHER.
      TMP - AIR TEMPERATURE.    DP   - DEWPOINT TEMPERATURE.
      RH  - RELATIVE HUMIDITY.  PRES - PRESSURE.
      HX  - HEAT INDEX.         WCI  - WIND CHILL INDEX.
$



USA.gov is the U.S. government's official web portal to all federal, state and local government web resources and services.